| time (UTC) | temp F | wind direction | speed MPH | gust MPH | rain 1hr in | rain 24hr in | rain mn in | humidity % | barometer mb |
| 20260507140136 | 0 | 102 | 0.0 | 3.0 | 0.00 | 0.00 | 0.00 | 64 | 1021.5 |
| 20260507135610 | 0 | 0 | 1.0 | 3.0 | 0.00 | 0.00 | 0.00 | 63 | 1021.2 |
| 20260507135047 | 0 | 0 | 0.0 | 3.0 | 0.00 | 0.00 | 0.00 | 65 | 1021.2 |
| 20260507134524 | 0 | 116 | 0.0 | 3.0 | 0.00 | 0.00 | 0.00 | 64 | 1021.1 |
| 20260507134001 | 0 | 0 | 0.0 | 2.0 | 0.00 | 0.00 | 0.00 | 63 | 1021.1 |
| 20260507133438 | 0 | 0 | 0.0 | 2.0 | 0.00 | 0.00 | 0.00 | 64 | 1021.0 |
| 20260507132915 | 0 | 144 | 0.0 | 4.0 | 0.00 | 0.00 | 0.00 | 64 | 1021.0 |
| 20260507132352 | 0 | 96 | 0.0 | 4.0 | 0.00 | 0.00 | 0.00 | 64 | 1021.1 |
| 20260507131829 | 0 | 95 | 0.0 | 4.0 | 0.00 | 0.00 | 0.00 | 65 | 1021.1 |
| 20260507131306 | 0 | 98 | 0.0 | 4.0 | 0.00 | 0.00 | 0.00 | 66 | 1021.1 |
| 20260507130743 | 0 | 105 | 0.0 | 4.0 | 0.00 | 0.00 | 0.00 | 65 | 1020.9 |
| 20260507130220 | 0 | 100 | 0.0 | 4.0 | 0.00 | 0.00 | 0.00 | 64 | 1020.8 |
| 20260507125657 | 0 | 109 | 1.0 | 6.0 | 0.00 | 0.00 | 0.00 | 66 | 1021.0 |
| 20260507125134 | 0 | 112 | 1.0 | 6.0 | 0.00 | 0.00 | 0.00 | 63 | 1020.8 |
| 20260507124612 | 0 | 109 | 2.0 | 6.0 | 0.00 | 0.00 | 0.00 | 64 | 1020.8 |
| 20260507124048 | 0 | 109 | 0.0 | 6.0 | 0.00 | 0.00 | 0.00 | 66 | 1020.8 |
| 20260507123529 | 0 | 91 | 0.0 | 6.0 | 0.00 | 0.00 | 0.00 | 65 | 1020.9 |
| 20260507123003 | 0 | 68 | 2.0 | 6.0 | 0.00 | 0.00 | 0.00 | 66 | 1020.8 |
| 20260507122439 | 0 | 79 | 1.0 | 8.0 | 0.00 | 0.00 | 0.00 | 66 | 1020.9 |
| 20260507121916 | 0 | 92 | 1.0 | 8.0 | 0.00 | 0.00 | 0.00 | 67 | 1021.1 |
| 20260507121353 | 0 | 88 | 2.0 | 8.0 | 0.00 | 0.00 | 0.00 | 67 | 1021.1 |
| 20260507120830 | 0 | 78 | 1.0 | 7.0 | 0.00 | 0.00 | 0.00 | 67 | 1021.1 |
| 20260507120309 | 0 | 110 | 1.0 | 7.0 | 0.00 | 0.00 | 0.00 | 66 | 1021.2 |
| 20260507115744 | 0 | 103 | 3.0 | 6.0 | 0.00 | 0.00 | 0.00 | 65 | 1021.2 |
| 20260507115222 | 0 | 99 | 1.0 | 6.0 | 0.00 | 0.00 | 0.00 | 66 | 1021.1 |
| 20260507114659 | 0 | 103 | 3.0 | 5.0 | 0.00 | 0.00 | 0.00 | 66 | 1021.3 |
| 20260507114136 | 0 | 82 | 0.0 | 5.0 | 0.00 | 0.00 | 0.00 | 65 | 1021.3 |
| 20260507113616 | 0 | 78 | 1.0 | 5.0 | 0.00 | 0.00 | 0.00 | 68 | 1021.3 |
| 20260507113050 | 0 | 93 | 1.0 | 5.0 | 0.00 | 0.00 | 0.00 | 68 | 1021.2 |
| 20260507112527 | 0 | 105 | 2.0 | 5.0 | 0.00 | 0.00 | 0.00 | 66 | 1021.4 |
| 20260507112003 | 0 | 92 | 2.0 | 4.0 | 0.00 | 0.00 | 0.00 | 67 | 1021.2 |
| 20260507111440 | 0 | 82 | 0.0 | 4.0 | 0.00 | 0.00 | 0.00 | 66 | 1021.3 |
| 20260507110917 | 0 | 102 | 1.0 | 2.0 | 0.00 | 0.00 | 0.00 | 64 | 1021.4 |
| 20260507110354 | 0 | 0 | 0.0 | 3.0 | 0.00 | 0.00 | 0.00 | 62 | 1021.3 |
| 20260507105831 | 0 | 0 | 0.0 | 3.0 | 0.00 | 0.00 | 0.00 | 64 | 1021.4 |
| 20260507105308 | 0 | 299 | 0.0 | 3.0 | 0.00 | 0.00 | 0.00 | 64 | 1021.4 |
| 20260507104747 | 0 | 264 | 0.0 | 5.0 | 0.00 | 0.00 | 0.00 | 66 | 1021.5 |
| 20260507104223 | 0 | 236 | 2.0 | 5.0 | 0.00 | 0.00 | 0.00 | 64 | 1021.6 |
| 20260507103749 | 0 | 225 | 0.0 | 6.0 | 0.00 | 0.00 | 0.00 | 66 | 1021.6 |
| 20260507103659 | 0 | 225 | 0.0 | 6.0 | 0.00 | 0.00 | 0.00 | 66 | 1021.6 |
| 20260507103136 | 0 | 228 | 1.0 | 6.0 | 0.00 | 0.00 | 0.00 | 65 | 1021.6 |
| 20260507102613 | 0 | 218 | 1.0 | 6.0 | 0.00 | 0.00 | 0.00 | 68 | 1021.8 |
| 20260507102050 | 0 | 232 | 0.0 | 6.0 | 0.00 | 0.00 | 0.00 | 68 | 1021.8 |
| 20260507101527 | 0 | 238 | 1.0 | 4.0 | 0.00 | 0.00 | 0.00 | 69 | 1021.8 |
| 20260507101004 | 0 | 289 | 1.0 | 4.0 | 0.00 | 0.00 | 0.00 | 69 | 1021.8 |
| 20260507100441 | 0 | 259 | 0.0 | 4.0 | 0.00 | 0.00 | 0.00 | 70 | 1021.7 |
| 20260507095918 | 0 | 246 | 0.0 | 4.0 | 0.00 | 0.00 | 0.00 | 71 | 1021.9 |
| 20260507095355 | 0 | 260 | 0.0 | 4.0 | 0.00 | 0.00 | 0.00 | 70 | 1021.8 |
| 20260507094832 | 0 | 245 | 0.0 | 4.0 | 0.00 | 0.00 | 0.00 | 71 | 1021.8 |
| 20260507094309 | 0 | 0 | 1.0 | 3.0 | 0.00 | 0.00 | 0.00 | 70 | 1021.8 |
| 20260507093838 | 0 | 250 | 0.0 | 3.0 | 0.00 | 0.00 | 0.00 | 73 | 1021.9 |
| 20260507093746 | 0 | 250 | 0.0 | 3.0 | 0.00 | 0.00 | 0.00 | 73 | 1021.9 |
| 20260507093225 | 0 | 270 | 0.0 | 5.0 | 0.00 | 0.00 | 0.00 | 71 | 1022.0 |
| 20260507092700 | 0 | 281 | 1.0 | 5.0 | 0.00 | 0.00 | 0.00 | 72 | 1022.0 |
| 20260507092137 | 0 | 235 | 1.0 | 4.0 | 0.00 | 0.00 | 0.00 | 71 | 1022.1 |
| 20260507091614 | 0 | 270 | 0.0 | 4.0 | 0.00 | 0.00 | 0.00 | 73 | 1022.2 |
| 20260507091051 | 0 | 0 | 0.0 | 4.0 | 0.00 | 0.00 | 0.00 | 73 | 1022.2 |
| 20260507090528 | 0 | 263 | 0.0 | 4.0 | 0.00 | 0.00 | 0.00 | 74 | 1022.1 |
| 20260507090005 | 0 | 0 | 0.0 | 2.0 | 0.00 | 0.00 | 0.00 | 75 | 1022.1 |
| 20260507085442 | 0 | 0 | 0.0 | 2.0 | 0.00 | 0.00 | 0.00 | 75 | 1022.2 |
| 20260507084919 | 0 | 288 | 0.0 | 4.0 | 0.00 | 0.00 | 0.00 | 75 | 1022.2 |
| 20260507084356 | 0 | 263 | 0.0 | 4.0 | 0.00 | 0.00 | 0.00 | 74 | 1022.2 |
| 20260507083833 | 0 | 193 | 0.0 | 4.0 | 0.00 | 0.00 | 0.00 | 75 | 1022.2 |
| 20260507083310 | 0 | 254 | 0.0 | 5.0 | 0.00 | 0.00 | 0.00 | 75 | 1022.2 |
| 20260507082747 | 0 | 266 | 0.0 | 5.0 | 0.00 | 0.00 | 0.00 | 75 | 1022.3 |
| 20260507082224 | 0 | 214 | 1.0 | 4.0 | 0.00 | 0.00 | 0.00 | 76 | 1022.3 |
| 20260507081701 | 0 | 231 | 0.0 | 4.0 | 0.00 | 0.00 | 0.00 | 76 | 1022.3 |
| 20260507081138 | 0 | 263 | 1.0 | 5.0 | 0.00 | 0.00 | 0.00 | 77 | 1022.3 |
| 20260507080615 | 0 | 232 | 0.0 | 5.0 | 0.00 | 0.00 | 0.00 | 77 | 1022.4 |
| 20260507080052 | 0 | 238 | 0.0 | 5.0 | 0.00 | 0.00 | 0.00 | 78 | 1022.3 |
| 20260507075530 | 0 | 217 | 1.0 | 4.0 | 0.00 | 0.00 | 0.00 | 80 | 1022.2 |
| 20260507075006 | 0 | 260 | 0.0 | 4.0 | 0.00 | 0.00 | 0.00 | 77 | 1022.2 |
| 20260507074442 | 0 | 212 | 0.0 | 4.0 | 0.00 | 0.00 | 0.00 | 80 | 1022.4 |
| 20260507073922 | 0 | 257 | 1.0 | 6.0 | 0.00 | 0.00 | 0.00 | 78 | 1022.3 |
| 20260507073356 | 0 | 215 | 0.0 | 6.0 | 0.00 | 0.00 | 0.00 | 79 | 1022.3 |
| 20260507072834 | 0 | 260 | 0.0 | 6.0 | 0.00 | 0.00 | 0.00 | 78 | 1022.4 |
| 20260507072323 | 0 | 219 | 0.0 | 2.0 | 0.00 | 0.00 | 0.00 | 79 | 1022.5 |
| 20260507071747 | 0 | 0 | 0.0 | 2.0 | 0.00 | 0.00 | 0.00 | 79 | 1022.5 |
| 20260507071225 | 0 | 218 | 0.0 | 2.0 | 0.00 | 0.00 | 0.00 | 77 | 1022.3 |
| 20260507070701 | 0 | 243 | 0.0 | 5.0 | 0.00 | 0.00 | 0.00 | 77 | 1022.3 |
| 20260507070139 | 0 | 271 | 0.0 | 5.0 | 0.00 | 0.00 | 0.00 | 77 | 1022.3 |
| 20260507065615 | 0 | 100 | 0.0 | 5.0 | 0.00 | 0.00 | 0.00 | 78 | 1022.4 |
| 20260507065052 | 0 | 302 | 1.0 | 4.0 | 0.00 | 0.00 | 0.00 | 80 | 1022.4 |
| 20260507064530 | 0 | 0 | 0.0 | 0.0 | 0.00 | 0.00 | 0.00 | 79 | 1022.4 |
| 20260507064006 | 0 | 0 | 0.0 | 3.0 | 0.00 | 0.00 | 0.00 | 81 | 1022.5 |
| 20260507063444 | 0 | 0 | 0.0 | 3.0 | 0.00 | 0.00 | 0.00 | 80 | 1022.5 |
| 20260507062921 | 0 | 250 | 0.0 | 3.0 | 0.00 | 0.00 | 0.00 | 81 | 1022.4 |
| 20260507062357 | 0 | 0 | 0.0 | 8.0 | 0.00 | 0.00 | 0.00 | 82 | 1022.5 |
| 20260507061834 | 0 | 222 | 0.0 | 8.0 | 0.00 | 0.00 | 0.00 | 82 | 1022.5 |
| 20260507061311 | 0 | 113 | 0.0 | 8.0 | 0.00 | 0.00 | 0.00 | 82 | 1022.6 |
| 20260507060749 | 0 | 0 | 0.0 | 0.0 | 0.00 | 0.00 | 0.00 | 81 | 1022.6 |
| 20260507060225 | 0 | 0 | 0.0 | 2.0 | 0.00 | 0.00 | 0.00 | 83 | 1022.6 |
| 20260507055702 | 0 | 215 | 0.0 | 2.0 | 0.00 | 0.00 | 0.00 | 84 | 1022.8 |
| 20260507055139 | 0 | 243 | 0.0 | 3.0 | 0.00 | 0.00 | 0.00 | 83 | 1022.8 |
| 20260507054616 | 0 | 268 | 0.0 | 3.0 | 0.00 | 0.00 | 0.00 | 82 | 1022.7 |
| 20260507054053 | 0 | 217 | 0.0 | 3.0 | 0.00 | 0.00 | 0.00 | 83 | 1022.8 |
| 20260507053530 | 0 | 233 | 0.0 | 2.0 | 0.00 | 0.00 | 0.00 | 85 | 1022.9 |
| 20260507053007 | 0 | 0 | 0.0 | 0.0 | 0.00 | 0.00 | 0.00 | 85 | 1022.9 |
| 20260507052444 | 0 | 0 | 0.0 | 0.0 | 0.00 | 0.00 | 0.00 | 84 | 1022.9 |
| 20260507051923 | 0 | 0 | 0.0 | 0.0 | 0.00 | 0.00 | 0.00 | 85 | 1022.9 |
| 20260507051358 | 0 | 0 | 0.0 | 0.0 | 0.00 | 0.00 | 0.00 | 84 | 1023.0 |
| 20260507050835 | 0 | 0 | 0.0 | 2.0 | 0.00 | 0.00 | 0.00 | 85 | 1023.0 |
| 20260507050312 | 0 | 92 | 0.0 | 2.0 | 0.00 | 0.00 | 0.00 | 84 | 1022.8 |
| 20260507045749 | 0 | 0 | 0.0 | 0.0 | 0.00 | 0.00 | 0.00 | 83 | 1023.0 |
| 20260507045226 | 0 | 266 | 0.0 | 6.0 | 0.00 | 0.00 | 0.00 | 83 | 1023.0 |
| 20260507044703 | 0 | 85 | 0.0 | 6.0 | 0.00 | 0.00 | 0.00 | 84 | 1023.0 |
| 20260507044140 | 0 | 0 | 0.0 | 6.0 | 0.00 | 0.00 | 0.00 | 85 | 1022.9 |
| 20260507043617 | 0 | 124 | 0.0 | 6.0 | 0.00 | 0.00 | 0.00 | 83 | 1022.9 |
| 20260507043054 | 0 | 294 | 0.0 | 4.0 | 0.00 | 0.00 | 0.00 | 84 | 1023.0 |
| 20260507042534 | 0 | 144 | 0.0 | 4.0 | 0.00 | 0.00 | 0.00 | 81 | 1022.9 |
| 20260507042008 | 0 | 246 | 0.0 | 2.0 | 0.00 | 0.00 | 0.00 | 80 | 1022.8 |
| 20260507041445 | 0 | 0 | 0.0 | 8.0 | 0.00 | 0.00 | 0.00 | 80 | 1022.9 |
| 20260507040923 | 0 | 93 | 0.0 | 8.0 | 0.00 | 0.00 | 0.00 | 75 | 1022.9 |
| 20260507040359 | 0 | 93 | 0.0 | 8.0 | 0.00 | 0.00 | 0.00 | 71 | 1022.9 |
| 20260507035836 | 0 | 116 | 4.0 | 8.0 | 0.00 | 0.00 | 0.00 | 68 | 1022.9 |
| 20260507035313 | 0 | 116 | 2.0 | 3.0 | 0.00 | 0.00 | 0.00 | 70 | 1022.9 |
| 20260507034750 | 0 | 107 | 0.0 | 2.0 | 0.00 | 0.00 | 0.00 | 71 | 1022.9 |
| 20260507034227 | 0 | 103 | 0.0 | 6.0 | 0.00 | 0.00 | 0.00 | 70 | 1023.0 |
| 20260507033704 | 0 | 99 | 0.0 | 6.0 | 0.00 | 0.00 | 0.00 | 71 | 1023.0 |
| 20260507033141 | 0 | 119 | 4.0 | 5.0 | 0.00 | 0.00 | 0.00 | 70 | 1022.9 |
| 20260507032618 | 0 | 128 | 2.0 | 4.0 | 0.00 | 0.00 | 0.00 | 70 | 1022.9 |
| 20260507032055 | 0 | 0 | 0.0 | 2.0 | 0.00 | 0.00 | 0.00 | 71 | 1023.0 |
| 20260507031532 | 0 | 105 | 0.0 | 5.0 | 0.00 | 0.00 | 0.00 | 71 | 1023.0 |
| 20260507031009 | 0 | 103 | 0.0 | 5.0 | 0.00 | 0.00 | 0.00 | 71 | 1022.9 |
| 20260507030446 | 0 | 100 | 1.0 | 5.0 | 0.00 | 0.00 | 0.00 | 70 | 1022.9 |
| 20260507025923 | 0 | 106 | 2.0 | 4.0 | 0.00 | 0.00 | 0.00 | 70 | 1022.9 |
| 20260507025401 | 0 | 89 | 0.0 | 5.0 | 0.00 | 0.00 | 0.00 | 71 | 1022.9 |
| 20260507024837 | 0 | 110 | 2.0 | 5.0 | 0.00 | 0.00 | 0.00 | 69 | 1022.8 |
| 20260507024314 | 0 | 116 | 0.0 | 5.0 | 0.00 | 0.00 | 0.00 | 69 | 1022.8 |
| 20260507023751 | 0 | 110 | 3.0 | 5.0 | 0.00 | 0.00 | 0.00 | 70 | 1022.8 |
| 20260507023228 | 0 | 110 | 1.0 | 4.0 | 0.00 | 0.00 | 0.00 | 70 | 1022.8 |
| 20260507022705 | 0 | 116 | 2.0 | 4.0 | 0.00 | 0.00 | 0.00 | 69 | 1022.8 |
| 20260507022142 | 0 | 102 | 1.0 | 3.0 | 0.00 | 0.00 | 0.00 | 69 | 1022.8 |
| 20260507021619 | 0 | 117 | 1.0 | 4.0 | 0.00 | 0.00 | 0.00 | 69 | 1022.8 |
| 20260507021056 | 0 | 110 | 1.0 | 4.0 | 0.00 | 0.00 | 0.00 | 70 | 1022.9 |
| 20260507020533 | 0 | 119 | 0.0 | 4.0 | 0.00 | 0.00 | 0.00 | 70 | 1023.0 |
| 20260507020011 | 0 | 99 | 2.0 | 4.0 | 0.00 | 0.00 | 0.00 | 69 | 1023.0 |
| 20260507015447 | 0 | 102 | 1.0 | 5.0 | 0.00 | 0.00 | 0.00 | 69 | 1022.9 |
| 20260507014924 | 0 | 121 | 0.0 | 5.0 | 0.00 | 0.00 | 0.00 | 68 | 1022.8 |
| 20260507014401 | 0 | 117 | 2.0 | 5.0 | 0.00 | 0.00 | 0.00 | 70 | 1023.1 |
| 20260507013838 | 0 | 130 | 0.0 | 5.0 | 0.00 | 0.00 | 0.00 | 67 | 1022.9 |
| 20260507013315 | 0 | 124 | 1.0 | 5.0 | 0.00 | 0.00 | 0.00 | 70 | 1023.1 |
| 20260507012752 | 0 | 109 | 0.0 | 4.0 | 0.00 | 0.00 | 0.00 | 71 | 1023.2 |
| 20260507012229 | 0 | 120 | 0.0 | 4.0 | 0.00 | 0.00 | 0.00 | 71 | 1023.3 |
| 20260507011706 | 0 | 81 | 1.0 | 6.0 | 0.00 | 0.00 | 0.00 | 70 | 1023.3 |
| 20260507011143 | 0 | 119 | 2.0 | 6.0 | 0.00 | 0.00 | 0.00 | 70 | 1023.2 |
| 20260507010620 | 0 | 91 | 3.0 | 6.0 | 0.00 | 0.00 | 0.00 | 70 | 1023.2 |
| 20260507010058 | 0 | 110 | 2.0 | 6.0 | 0.00 | 0.00 | 0.00 | 71 | 1023.3 |
| 20260507005534 | 0 | 102 | 1.0 | 6.0 | 0.00 | 0.00 | 0.00 | 70 | 1023.3 |
| 20260507005012 | 0 | 109 | 3.0 | 6.0 | 0.00 | 0.00 | 0.00 | 71 | 1023.2 |
| 20260507004447 | 0 | 113 | 2.0 | 6.0 | 0.00 | 0.00 | 0.00 | 72 | 1023.2 |
| 20260507003924 | 0 | 89 | 1.0 | 6.0 | 0.00 | 0.00 | 0.00 | 74 | 1023.2 |
| 20260507003401 | 0 | 98 | 1.0 | 6.0 | 0.00 | 0.00 | 0.00 | 74 | 1023.3 |
| 20260507002841 | 0 | 114 | 2.0 | 6.0 | 0.00 | 0.00 | 0.00 | 75 | 1023.2 |
| 20260507002315 | 0 | 100 | 0.0 | 5.0 | 0.00 | 0.00 | 0.00 | 68 | 1023.2 |
| 20260507001752 | 0 | 92 | 0.0 | 5.0 | 0.00 | 0.00 | 0.00 | 69 | 1023.2 |
| 20260507001230 | 0 | 121 | 1.0 | 5.0 | 0.00 | 0.00 | 0.00 | 69 | 1023.3 |
| 20260507000707 | 0 | 127 | 3.0 | 6.0 | 0.00 | 0.00 | 0.00 | 70 | 1023.2 |
| 20260507000143 | 0 | 113 | 0.0 | 6.0 | 0.00 | 0.00 | 0.00 | 73 | 1023.3 |
| 20260506235621 | 0 | 110 | 0.0 | 5.0 | 0.00 | 0.00 | 0.00 | 73 | 1023.3 |
| 20260506235057 | 0 | 138 | 1.0 | 5.0 | 0.00 | 0.00 | 0.00 | 73 | 1023.3 |
| 20260506234535 | 0 | 123 | 1.0 | 6.0 | 0.00 | 0.00 | 0.00 | 74 | 1023.3 |
| 20260506234011 | 0 | 113 | 2.0 | 6.0 | 0.00 | 0.00 | 0.00 | 74 | 1023.3 |
| 20260506233449 | 0 | 112 | 3.0 | 6.0 | 0.00 | 0.00 | 0.00 | 75 | 1023.4 |
| 20260506232927 | 0 | 110 | 3.0 | 6.0 | 0.00 | 0.00 | 0.00 | 75 | 1023.4 |
| 20260506232402 | 0 | 121 | 0.0 | 6.0 | 0.00 | 0.00 | 0.00 | 75 | 1023.3 |
| 20260506231839 | 0 | 120 | 2.0 | 6.0 | 0.00 | 0.00 | 0.00 | 74 | 1023.4 |
| 20260506231316 | 0 | 133 | 3.0 | 5.0 | 0.00 | 0.00 | 0.00 | 73 | 1023.4 |
| 20260506230753 | 0 | 109 | 1.0 | 6.0 | 0.00 | 0.00 | 0.00 | 70 | 1023.6 |
| 20260506230231 | 0 | 114 | 2.0 | 6.0 | 0.00 | 0.00 | 0.00 | 73 | 1023.8 |
| 20260506225707 | 0 | 144 | 3.0 | 4.0 | 0.00 | 0.00 | 0.00 | 69 | 1023.8 |
| 20260506225145 | 0 | 148 | 0.0 | 4.0 | 0.00 | 0.00 | 0.00 | 69 | 1024.0 |
| 20260506224621 | 0 | 149 | 1.0 | 4.0 | 0.00 | 0.00 | 0.00 | 65 | 1023.6 |
| 20260506224058 | 0 | 145 | 2.0 | 4.0 | 0.00 | 0.00 | 0.00 | 64 | 1023.8 |
| 20260506223535 | 0 | 172 | 1.0 | 4.0 | 0.00 | 0.00 | 0.00 | 65 | 1023.6 |
| 20260506223014 | 0 | 120 | 0.0 | 4.0 | 0.00 | 0.00 | 0.00 | 65 | 1023.8 |
| 20260506222449 | 0 | 116 | 1.0 | 6.0 | 0.00 | 0.00 | 0.00 | 65 | 1023.9 |
| 20260506221926 | 0 | 141 | 0.0 | 6.0 | 0.00 | 0.00 | 0.00 | 64 | 1024.1 |
| 20260506221403 | 0 | 117 | 0.0 | 6.0 | 0.00 | 0.00 | 0.00 | 63 | 1023.8 |
| 20260506220841 | 0 | 29 | 0.0 | 3.0 | 0.00 | 0.00 | 0.00 | 64 | 1023.9 |
| 20260506220317 | 0 | 135 | 0.0 | 2.0 | 0.00 | 0.00 | 0.00 | 62 | 1023.8 |
| 20260506215754 | 0 | 162 | 0.0 | 3.0 | 0.00 | 0.00 | 0.00 | 64 | 1024.0 |
| 20260506215231 | 0 | 133 | 0.0 | 3.0 | 0.00 | 0.00 | 0.00 | 64 | 1023.8 |
| 20260506214708 | 0 | 127 | 0.0 | 1.0 | 0.00 | 0.00 | 0.00 | 63 | 1023.8 |
| 20260506214145 | 0 | 0 | 0.0 | 2.0 | 0.00 | 0.00 | 0.00 | 64 | 1023.9 |
| 20260506213622 | 0 | 130 | 0.0 | 2.0 | 0.00 | 0.00 | 0.00 | 62 | 1023.5 |
| 20260506213059 | 0 | 0 | 0.0 | 2.0 | 0.00 | 0.00 | 0.00 | 60 | 1023.5 |
| 20260506212538 | 0 | 133 | 0.0 | 3.0 | 0.00 | 0.00 | 0.00 | 60 | 1023.6 |
| 20260506212013 | 0 | 127 | 0.0 | 3.0 | 0.00 | 0.00 | 0.00 | 56 | 1023.4 |
| 20260506211450 | 0 | 238 | 1.0 | 3.0 | 0.00 | 0.00 | 0.00 | 60 | 1023.6 |
| 20260506210927 | 0 | 141 | 0.0 | 1.0 | 0.00 | 0.00 | 0.00 | 58 | 1023.5 |
| 20260506210404 | 0 | 190 | 0.0 | 1.0 | 0.00 | 0.00 | 0.00 | 57 | 1023.4 |
| 20260506205841 | 0 | 0 | 0.0 | 4.0 | 0.00 | 0.00 | 0.00 | 58 | 1023.3 |
| 20260506205319 | 0 | 0 | 0.0 | 4.0 | 0.00 | 0.00 | 0.00 | 57 | 1023.4 |
| 20260506204755 | 0 | 186 | 1.0 | 1.0 | 0.00 | 0.00 | 0.00 | 58 | 1023.5 |
| 20260506204232 | 0 | 0 | 0.0 | 0.0 | 0.00 | 0.00 | 0.00 | 59 | 1023.6 |
| 20260506203709 | 0 | 217 | 0.0 | 3.0 | 0.00 | 0.00 | 0.00 | 58 | 1023.2 |
| 20260506203146 | 0 | 51 | 0.0 | 3.0 | 0.00 | 0.00 | 0.00 | 58 | 1023.2 |
| 20260506202624 | 0 | 61 | 0.0 | 4.0 | 0.00 | 0.00 | 0.00 | 60 | 1023.5 |
| 20260506202100 | 0 | 61 | 0.0 | 4.0 | 0.00 | 0.00 | 0.00 | 59 | 1023.5 |
| 20260506201537 | 0 | 46 | 1.0 | 4.0 | 0.00 | 0.00 | 0.00 | 60 | 1023.3 |
| 20260506201014 | 0 | 58 | 0.0 | 3.0 | 0.00 | 0.00 | 0.00 | 57 | 1023.1 |
| 20260506200451 | 0 | 67 | 0.0 | 3.0 | 0.00 | 0.00 | 0.00 | 58 | 1023.4 |
| 20260506195928 | 0 | 0 | 0.0 | 2.0 | 0.00 | 0.00 | 0.00 | 57 | 1023.5 |
| 20260506195405 | 0 | 145 | 0.0 | 2.0 | 0.00 | 0.00 | 0.00 | 56 | 1023.3 |
| 20260506194842 | 0 | 63 | 1.0 | 2.0 | 0.00 | 0.00 | 0.00 | 57 | 1023.3 |
| 20260506194319 | 0 | 12 | 0.0 | 1.0 | 0.00 | 0.00 | 0.00 | 56 | 1023.3 |
| 20260506193756 | 0 | 242 | 0.0 | 0.0 | 0.00 | 0.00 | 0.00 | 55 | 1023.3 |
| 20260506193233 | 0 | 0 | 0.0 | 0.0 | 0.00 | 0.00 | 0.00 | 56 | 1023.3 |
| 20260506192710 | 0 | 0 | 0.0 | 0.0 | 0.00 | 0.00 | 0.00 | 56 | 1023.2 |
| 20260506192149 | 0 | 0 | 0.0 | 0.0 | 0.00 | 0.00 | 0.00 | 59 | 1023.4 |
| 20260506191624 | 0 | 242 | 0.0 | 0.0 | 0.00 | 0.00 | 0.00 | 58 | 1023.4 |
| 20260506191101 | 0 | 0 | 0.0 | 1.0 | 0.00 | 0.00 | 0.00 | 56 | 1023.2 |
| 20260506190538 | 0 | 0 | 0.0 | 1.0 | 0.00 | 0.00 | 0.00 | 58 | 1023.3 |
| 20260506190015 | 0 | 263 | 0.0 | 1.0 | 0.00 | 0.00 | 0.00 | 57 | 1023.2 |
| 20260506185452 | 0 | 106 | 0.0 | 4.0 | 0.00 | 0.00 | 0.00 | 58 | 1023.4 |
| 20260506184930 | 0 | 0 | 0.0 | 4.0 | 0.00 | 0.00 | 0.00 | 57 | 1023.3 |
| 20260506184406 | 0 | 33 | 0.0 | 4.0 | 0.00 | 0.00 | 0.00 | 57 | 1023.3 |
| 20260506183843 | 0 | 0 | 0.0 | 1.0 | 0.00 | 0.00 | 0.00 | 57 | 1023.2 |
| 20260506183320 | 0 | 186 | 0.0 | 1.0 | 0.00 | 0.00 | 0.00 | 59 | 1023.4 |
| 20260506182757 | 0 | 0 | 0.0 | 2.0 | 0.00 | 0.00 | 0.00 | 58 | 1023.2 |
| 20260506182234 | 0 | 176 | 0.0 | 2.0 | 0.00 | 0.00 | 0.00 | 58 | 1022.9 |
| 20260506181711 | 0 | 211 | 0.0 | 1.0 | 0.00 | 0.00 | 0.00 | 57 | 1023.0 |
| 20260506181148 | 0 | 254 | 0.0 | 3.0 | 0.00 | 0.00 | 0.00 | 60 | 1023.2 |
| 20260506180625 | 0 | 253 | 0.0 | 3.0 | 0.00 | 0.00 | 0.00 | 57 | 1023.0 |
| 20260506175540 | 0 | 0 | 0.0 | 0.0 | 0.00 | 0.00 | 0.00 | 61 | 1023.0 |
| 20260506175016 | 0 | 0 | 0.0 | 0.0 | 0.00 | 0.00 | 0.00 | 62 | 1022.8 |
| 20260506174453 | 0 | 0 | 0.0 | 2.0 | 0.00 | 0.00 | 0.00 | 60 | 1022.9 |
| 20260506173930 | 0 | 0 | 0.0 | 2.0 | 0.00 | 0.00 | 0.00 | 59 | 1022.8 |
| 20260506173407 | 0 | 191 | 0.0 | 2.0 | 0.00 | 0.00 | 0.00 | 59 | 1022.7 |
| 20260506172844 | 0 | 281 | 0.0 | 2.0 | 0.00 | 0.00 | 0.00 | 60 | 1022.7 |
| 20260506172321 | 0 | 320 | 0.0 | 2.0 | 0.00 | 0.00 | 0.00 | 61 | 1022.7 |
| 20260506171758 | 0 | 0 | 0.0 | 0.0 | 0.00 | 0.00 | 0.00 | 60 | 1022.6 |
| 20260506171234 | 0 | 0 | 0.0 | 0.0 | 0.00 | 0.00 | 0.00 | 60 | 1022.5 |
| 20260506170712 | 0 | 0 | 0.0 | 0.0 | 0.00 | 0.00 | 0.00 | 62 | 1022.6 |
| 20260506170149 | 0 | 0 | 0.0 | 0.0 | 0.00 | 0.00 | 0.00 | 62 | 1022.7 |
| 20260506165625 | 0 | 0 | 0.0 | 0.0 | 0.00 | 0.00 | 0.00 | 60 | 1022.6 |
| 20260506165102 | 0 | 0 | 0.0 | 0.0 | 0.00 | 0.00 | 0.00 | 62 | 1022.6 |
| 20260506164540 | 0 | 0 | 0.0 | 0.0 | 0.00 | 0.00 | 0.00 | 60 | 1022.4 |
| 20260506164017 | 0 | 0 | 0.0 | 0.0 | 0.00 | 0.00 | 0.00 | 61 | 1022.4 |
| 20260506163454 | 0 | 0 | 0.0 | 0.0 | 0.00 | 0.00 | 0.00 | 65 | 1022.7 |
| 20260506162930 | 0 | 0 | 0.0 | 0.0 | 0.00 | 0.00 | 0.00 | 60 | 1022.1 |
| 20260506162407 | 0 | 0 | 0.0 | 0.0 | 0.00 | 0.00 | 0.00 | 63 | 1022.1 |
| 20260506161845 | 0 | 0 | 0.0 | 0.0 | 0.00 | 0.00 | 0.00 | 60 | 1022.3 |
| 20260506161321 | 0 | 0 | 0.0 | 0.0 | 0.00 | 0.00 | 0.00 | 61 | 1022.3 |
| 20260506160758 | 0 | 0 | 0.0 | 0.0 | 0.00 | 0.00 | 0.00 | 61 | 1022.2 |
| 20260506160235 | 0 | 0 | 0.0 | 0.0 | 0.00 | 0.00 | 0.00 | 62 | 1022.1 |
| 20260506155712 | 0 | 0 | 0.0 | 0.0 | 0.00 | 0.00 | 0.00 | 63 | 1022.3 |
| 20260506155150 | 0 | 0 | 0.0 | 0.0 | 0.00 | 0.00 | 0.00 | 64 | 1022.4 |
| 20260506154626 | 0 | 0 | 0.0 | 0.0 | 0.00 | 0.00 | 0.00 | 62 | 1021.9 |
| 20260506154103 | 0 | 0 | 0.0 | 0.0 | 0.00 | 0.00 | 0.00 | 62 | 1021.9 |
| 20260506153541 | 0 | 0 | 0.0 | 0.0 | 0.00 | 0.00 | 0.00 | 62 | 1021.8 |
| 20260506153017 | 0 | 0 | 0.0 | 0.0 | 0.00 | 0.00 | 0.00 | 62 | 1021.8 |
| 20260506152455 | 0 | 0 | 0.0 | 0.0 | 0.00 | 0.00 | 0.00 | 62 | 1021.6 |
| 20260506151931 | 0 | 0 | 0.0 | 0.0 | 0.00 | 0.00 | 0.00 | 63 | 1021.6 |
| 20260506151408 | 0 | 0 | 0.0 | 0.0 | 0.00 | 0.00 | 0.00 | 64 | 1021.6 |
| 20260506150845 | 0 | 0 | 0.0 | 0.0 | 0.00 | 0.00 | 0.00 | 63 | 1021.7 |
| 20260506150322 | 0 | 0 | 0.0 | 0.0 | 0.00 | 0.00 | 0.00 | 63 | 1021.5 |
| 20260506145759 | 0 | 0 | 0.0 | 0.0 | 0.00 | 0.00 | 0.00 | 63 | 1021.2 |
| 20260506145236 | 0 | 0 | 0.0 | 0.0 | 0.00 | 0.00 | 0.00 | 66 | 1021.7 |
| 20260506144713 | 0 | 0 | 0.0 | 0.0 | 0.00 | 0.00 | 0.00 | 65 | 1022.0 |
| 20260506144151 | 0 | 0 | 0.0 | 0.0 | 0.00 | 0.00 | 0.00 | 62 | 1021.6 |
| 20260506143627 | 0 | 0 | 0.0 | 0.0 | 0.00 | 0.00 | 0.00 | 62 | 1021.8 |
| 20260506143104 | 0 | 0 | 0.0 | 0.0 | 0.00 | 0.00 | 0.00 | 65 | 1021.7 |
| 20260506142541 | 0 | 0 | 0.0 | 0.0 | 0.00 | 0.00 | 0.00 | 65 | 1022.1 |
| 20260506142019 | 0 | 0 | 0.0 | 0.0 | 0.00 | 0.00 | 0.00 | 65 | 1022.0 |
| 20260506141455 | 0 | 0 | 0.0 | 0.0 | 0.00 | 0.00 | 0.00 | 65 | 1021.9 |
| 20260506140932 | 0 | 0 | 0.0 | 0.0 | 0.00 | 0.00 | 0.00 | 65 | 1022.0 |
| 20260506140409 | 0 | 0 | 0.0 | 0.0 | 0.00 | 0.00 | 0.00 | 65 | 1021.9 |